Regional Weather Roundup
Issued by NWS Charleston, WV

Home | Current Version | Previous Version | Text Only | Print | Product List | Glossary Off
Versions: 1 2 3 4 5 6 7 8 9 10 11 12 13 14 15 16 17 18 19 20 21 22 23 24 25 26 27 28 29 30 31 32 33 34 35 36 37 38 39 40 41 42 43 44 45 46 47 48 49 50

000
ASUS41 KRLX 301510
RWRRLX
West Virginia Regional Weather Roundup
National Weather Service Charleston WV
1000 AM EST FRI JAN 30 2015

Note: "fair" indicates few or no clouds below 12,000 feet with no
significant weather and/or obstructions to visibility.

WVZ003-301600-
Northern Panhandle of West Virginia

CITY           SKY/WX    TMP DP  RH WIND       PRES   REMARKS
WHEELING       PTSUNNY   21  12  68 NW18G26   30.21R WCI   6
$$

WVZ009-301600-
Northwest West Virginia

CITY           SKY/WX    TMP DP  RH WIND       PRES   REMARKS
PARKERSBURG    MOSUNNY   25  14  63 NW17G28   30.32R
$$

WVZ006-301600-
Western West Virginia

CITY           SKY/WX    TMP DP  RH WIND       PRES   REMARKS
HUNTINGTON     CLOUDY    29  17  61 NW18G28   30.32R
$$

WVZ015-301600-
West Central West Virginia

CITY           SKY/WX    TMP DP  RH WIND       PRES   REMARKS
CHARLESTON     PTSUNNY   30  18  60 NW20G35   30.27R
$$

WVZ022-031-301600-
North Central West Virginia

CITY           SKY/WX    TMP DP  RH WIND       PRES   REMARKS
CLARKSBURG     LGT SNOW  26  18  71 NW16G26   30.18R
MORGANTOWN     LGT SNOW  24  17  74 NW10G17   30.18R VSB 3/4
$$

WVZ025-035-042-045-301600-
Southern West Virginia

CITY           SKY/WX    TMP DP  RH WIND       PRES   REMARKS
BECKLEY        SNOW      24  21  88 NW12G25   30.14R VSB 1/4
LOGAN          CLOUDY    28  23  80 NW13G21   30.22S
BLUEFIELD      LGT SNOW  27  21  78 NW14G32   30.11S VSB 3/4
LEWISBURG      LGT SNOW  30  24  80 NW8       30.09R
$$

WVZ047-301600-
Northern Mountains of West Virginia

CITY           SKY/WX    TMP DP  RH WIND       PRES   REMARKS
ELKINS         LGT SNOW  25  19  78 NW17G25   30.12R
$$

WVZ052-301600-
Eastern Panhandle of West Virginia

CITY           SKY/WX    TMP DP  RH WIND       PRES   REMARKS
MARTINSBURG    CLOUDY    36  22  56 W21G30    30.05R
PETERSBURG     CLOUDY    32  18  55 N10       30.09R
$$



USA.gov is the U.S. government's official web portal to all federal, state and local government web resources and services.